Location: Betpouey
(42.8833°N, 0.0333°E)
Time: 05:46:36
(UTC+00:00)

Meteor 2-13 Rocket - Pass Details

Date: 28 June 2021
Orbit: 935 x 958 km, 82.5° (Epoch: 26 July)

Event Time Altitude Azimuth Distance (km) Brightness Sun altitude
Exits shadow 00:53:05 24° 251° (WSW) 1,892 5.7 -22.8°
Maximum altitude 00:55:29 31° 288° (WNW) 1,631 5.7 -22.8°
Drops below altitude 10° 01:00:52 10° 349° (N) 2,696 7.7 -22.5°
Sets 01:03:43 0° 360° (N) 3,644 8.8 -22.4°
